Location: Newark
(48.2181°N, 17.1299°E)
Time: 01:55:08
(UTC+00:00)

ISS - Visible Passes

Search period start: 14 November 2019 00:00
Search period end: 24 November 2019 00:00
Orbit: 412 x 421 km, 51.6° (Epoch: 14 November)

Date Brightness Start Highest point End Pass type
(mag) Time Alt. Az. Time Alt. Az. Time Alt. Az.
22 Nov -1.6 17:28:14 10° SSW 17:29:36 21° SSW 17:29:36 21° SSW visible
23 Nov -2.3 16:40:16 10° SSW 16:42:59 23° SE 16:43:19 23° SE visible
23 Nov -0.3 18:16:05 10° WSW 18:16:13 11° WSW 18:16:13 11° WSW visible
